�������l�o���
Date,Time,MP-1(��Sv/h),MP-2(��Sv/h),MP-3(��Sv/h),MP-4(��Sv/h),MP-5(��Sv/h),MP-6(��Sv/h),MP-7(��Sv/h),MP-8(��Sv/h),����,����(m/s),���J
2019/03/12,00:00,0.743,1.080,0.754,1.383,0.973,0.433,0.766,0.726,���k��,11.0,��
2019/03/12,00:10,0.743,1.079,0.751,1.384,0.974,0.432,0.766,0.726,�k��,8.1,��
2019/03/12,00:20,0.744,1.077,0.753,1.383,0.975,0.432,0.764,0.726,�k��,9.8,��
2019/03/12,00:30,0.743,1.080,0.753,1.383,0.974,0.433,0.765,0.726,���k��,9.7,��
2019/03/12,00:40,0.743,1.076,0.754,1.386,0.977,0.432,0.765,0.726,���k��,8.5,��
2019/03/12,00:50,0.743,1.078,0.751,1.387,0.975,0.433,0.765,0.727,���k��,7.8,��
2019/03/12,01:00,0.744,1.079,0.752,1.385,0.976,0.433,0.764,0.726,�k��,6.3,��
2019/03/12,01:10,0.744,1.079,0.753,1.386,0.974,0.433,0.764,0.725,���k��,8.7,��
2019/03/12,01:20,0.744,1.080,0.751,1.387,0.977,0.434,0.765,0.727,���k��,7.9,��
2019/03/12,01:30,0.743,1.078,0.753,1.388,0.974,0.433,0.765,0.726,���k��,9.7,��
2019/03/12,01:40,0.745,1.081,0.754,1.386,0.977,0.433,0.768,0.726,���k��,9.2,��
2019/03/12,01:50,0.743,1.077,0.755,1.388,0.975,0.432,0.766,0.727,���k��,9.1,��
2019/03/12,02:00,0.745,1.078,0.752,1.388,0.975,0.434,0.767,0.725,���k��,7.9,��
2019/03/12,02:10,0.743,1.079,0.755,1.387,0.976,0.433,0.767,0.727,���k��,8.9,��
2019/03/12,02:20,0.746,1.077,0.753,1.389,0.977,0.432,0.766,0.726,���k��,7.8,��
2019/03/12,02:30,0.745,1.082,0.753,1.388,0.976,0.431,0.768,0.728,���k��,5.8,��
2019/03/12,02:40,0.743,1.081,0.755,1.390,0.976,0.434,0.768,0.727,���k��,7.1,��
2019/03/12,02:50,0.743,1.078,0.753,1.389,0.977,0.431,0.768,0.728,���k��,9.2,��
2019/03/12,03:00,0.743,1.080,0.754,1.387,0.978,0.433,0.765,0.726,���k��,8.4,��
2019/03/12,03:10,0.745,1.081,0.756,1.390,0.977,0.431,0.766,0.727,�k��,8.8,��
2019/03/12,03:20,0.742,1.082,0.753,1.391,0.978,0.432,0.767,0.727,���k��,6.6,��
2019/03/12,03:30,0.744,1.082,0.755,1.389,0.977,0.433,0.766,0.730,�k��,8.0,��
2019/03/12,03:40,0.744,1.081,0.754,1.387,0.980,0.432,0.767,0.727,�k�k��,5.6,��
2019/03/12,03:50,0.744,1.080,0.756,1.390,0.976,0.433,0.766,0.727,�k��,5.9,��
2019/03/12,04:00,0.744,1.078,0.754,1.389,0.979,0.433,0.766,0.729,�k�k��,3.0,��
2019/03/12,04:10,0.744,1.082,0.753,1.389,0.978,0.432,0.768,0.728,�k,3.0,��
2019/03/12,04:20,0.744,1.079,0.753,1.387,0.977,0.432,0.765,0.728,�k�k��,3.2,��
2019/03/12,04:30,0.744,1.082,0.753,1.389,0.979,0.432,0.769,0.728,�k�k��,3.6,��
2019/03/12,04:40,0.742,1.084,0.754,1.391,0.978,0.432,0.768,0.728,�k��,1.7,��
2019/03/12,04:50,0.744,1.081,0.753,1.389,0.978,0.432,0.769,0.727,�k�k��,2.3,��
2019/03/12,05:00,0.744,1.080,0.753,1.390,0.979,0.433,0.766,0.727,�k��,2.6,��
2019/03/12,05:10,0.743,1.080,0.754,1.390,0.979,0.431,0.768,0.727,���k��,3.8,��
2019/03/12,05:20,0.745,1.081,0.751,1.388,0.977,0.432,0.767,0.726,���k��,3.4,��
2019/03/12,05:30,0.741,1.081,0.753,1.389,0.978,0.432,0.766,0.728,���k��,3.6,��
2019/03/12,05:40,0.744,1.079,0.755,1.389,0.979,0.433,0.767,0.726,���k��,4.3,��
2019/03/12,05:50,0.743,1.081,0.754,1.388,0.979,0.433,0.768,0.727,���k��,5.6,��
2019/03/12,06:00,0.742,1.080,0.754,1.388,0.978,0.432,0.766,0.725,���k��,4.9,��
2019/03/12,06:10,0.743,1.085,0.754,1.389,0.978,0.432,0.766,0.726,��,6.3,��
2019/03/12,06:20,0.744,1.081,0.755,1.390,0.979,0.431,0.766,0.727,��,5.0,��
2019/03/12,06:30,0.743,1.080,0.753,1.390,0.981,0.432,0.765,0.726,��,4.3,��
2019/03/12,06:40,0.745,1.082,0.751,1.391,0.981,0.433,0.766,0.725,���k��,5.2,��
2019/03/12,06:50,0.743,1.079,0.754,1.390,0.979,0.432,0.766,0.726,���k��,5.2,��
2019/03/12,07:00,0.744,1.080,0.756,1.390,0.980,0.431,0.766,0.727,���k��,5.0,��
2019/03/12,07:10,0.743,1.080,0.753,1.390,0.980,0.432,0.767,0.726,���k��,5.0,��
2019/03/12,07:20,0.743,1.079,0.754,1.390,0.983,0.432,0.766,0.728,���k��,5.0,��
2019/03/12,07:30,0.743,1.081,0.755,1.391,0.980,0.434,0.765,0.728,��,4.1,��
2019/03/12,07:40,0.742,1.082,0.753,1.391,0.981,0.432,0.767,0.727,��,4.4,��
2019/03/12,07:50,0.744,1.081,0.754,1.390,0.980,0.434,0.768,0.728,��,4.5,��
2019/03/12,08:00,0.745,1.082,0.752,1.391,0.979,0.432,0.767,0.727,��,4.1,��
2019/03/12,08:10,0.746,1.084,0.753,1.389,0.979,0.433,0.766,0.726,��,3.4,��
2019/03/12,08:20,0.746,1.083,0.754,1.391,0.984,0.430,0.767,0.728,��,3.2,��
2019/03/12,08:30,0.745,1.081,0.754,1.392,0.982,0.433,0.767,0.727,���k��,3.7,��
2019/03/12,08:40,0.746,1.078,0.753,1.391,0.982,0.433,0.766,0.727,��,2.9,��
2019/03/12,08:50,0.745,1.082,0.755,1.389,0.982,0.432,0.766,0.727,�쐼,3.5,��
2019/03/12,09:00,0.746,1.082,0.753,1.390,0.983,0.432,0.766,0.728,�쐼,3.9,��
2019/03/12,09:10,0.744,1.078,0.755,1.393,0.984,0.432,0.764,0.729,�쐼,2.8,��
2019/03/12,09:20,0.746,1.080,0.756,1.391,0.984,0.433,0.767,0.730,��,3.9,��
2019/03/12,09:30,0.749,1.079,0.757,1.391,0.984,0.433,0.767,0.729,��,6.0,��
2019/03/12,09:40,0.749,1.080,0.755,1.390,0.984,0.435,0.767,0.730,��,4.1,��
2019/03/12,09:50,0.747,1.081,0.755,1.390,0.986,0.434,0.764,0.728,��,4.6,��
2019/03/12,10:00,0.746,1.081,0.754,1.390,0.984,0.433,0.765,0.727,���k��,4.3,��
2019/03/12,10:10,0.749,1.081,0.758,1.390,0.986,0.432,0.765,0.726,���k��,4.9,��
2019/03/12,10:20,0.748,1.084,0.757,1.391,0.989,0.433,0.766,0.726,���k��,4.6,��
2019/03/12,10:30,0.747,1.085,0.758,1.390,0.989,0.433,0.766,0.726,���k��,3.7,��
2019/03/12,10:40,0.748,1.082,0.757,1.392,0.988,0.433,0.766,0.724,���k��,4.1,��
2019/03/12,10:50,0.749,1.084,0.758,1.391,0.990,0.431,0.768,0.726,��,6.4,��
2019/03/12,11:00,0.749,1.083,0.757,1.392,0.988,0.433,0.766,0.726,���k��,7.8,��
2019/03/12,11:10,0.748,1.085,0.758,1.393,0.987,0.431,0.767,0.726,��,5.4,��
2019/03/12,11:20,0.748,1.087,0.759,1.393,0.989,0.432,0.767,0.726,���쐼,6.0,��
2019/03/12,11:30,0.749,1.090,0.757,1.391,0.989,0.431,0.768,0.726,�쐼,4.1,��
2019/03/12,11:40,0.748,1.088,0.758,1.391,0.990,0.433,0.767,0.726,�쐼,4.1,��
2019/03/12,11:50,0.747,1.088,0.758,1.396,0.989,0.432,0.768,0.727,��,4.5,��
2019/03/12,12:00,0.749,1.091,0.759,1.398,0.987,0.432,0.768,0.727,���k��,5.3,��
2019/03/12,12:10,0.749,1.092,0.761,1.398,0.988,0.434,0.767,0.727,��,5.2,��
2019/03/12,12:20,0.749,1.089,0.758,1.398,0.991,0.434,0.769,0.728,��,4.3,��
2019/03/12,12:30,0.749,1.090,0.761,1.397,0.992,0.435,0.769,0.727,��,7.0,��
2019/03/12,12:40,0.749,1.091,0.759,1.400,0.990,0.436,0.770,0.728,��,8.4,��
2019/03/12,12:50,0.750,1.088,0.759,1.398,0.993,0.435,0.768,0.727,��,7.1,��
2019/03/12,13:00,0.751,1.093,0.760,1.400,0.993,0.437,0.769,0.728,��,8.5,��
2019/03/12,13:10,0.752,1.090,0.757,1.401,0.993,0.436,0.770,0.728,��,7.3,��
2019/03/12,13:20,0.751,1.090,0.758,1.401,0.991,0.437,0.768,0.730,��,9.1,��
2019/03/12,13:30,0.750,1.092,0.757,1.400,0.993,0.437,0.769,0.728,���k��,7.9,��
2019/03/12,13:40,0.752,1.091,0.760,1.401,0.993,0.436,0.770,0.728,���k��,8.2,��
2019/03/12,13:50,0.752,1.093,0.760,1.399,0.993,0.435,0.770,0.730,��,8.1,��
2019/03/12,14:00,0.752,1.094,0.761,1.401,0.993,0.436,0.768,0.728,���쐼,9.4,��
2019/03/12,14:10,0.751,1.094,0.759,1.401,0.994,0.435,0.771,0.728,���쐼,8.6,��
2019/03/12,14:20,0.752,1.094,0.758,1.401,0.995,0.436,0.770,0.728,��,9.8,��
2019/03/12,14:30,0.752,1.098,0.759,1.402,0.996,0.436,0.771,0.728,��,7.5,��
2019/03/12,14:40,0.752,1.094,0.759,1.402,0.996,0.436,0.771,0.729,���k��,4.7,��
2019/03/12,14:50,0.753,1.095,0.758,1.403,0.997,0.434,0.770,0.728,��,6.3,��
2019/03/12,15:00,0.752,1.096,0.760,1.405,0.995,0.435,0.770,0.730,���k��,6.7,��
2019/03/12,15:10,0.752,1.097,0.761,1.405,0.998,0.435,0.771,0.728,���k��,8.3,��
2019/03/12,15:20,0.754,1.098,0.761,1.405,0.998,0.436,0.771,0.730,��,5.7,��
2019/03/12,15:30,0.751,1.097,0.760,1.404,0.997,0.436,0.770,0.730,���k��,4.5,��
2019/03/12,15:40,0.752,1.096,0.761,1.405,0.996,0.436,0.770,0.727,���k��,4.7,��
2019/03/12,15:50,0.752,1.098,0.760,1.403,0.995,0.437,0.771,0.727,��,3.6,��
2019/03/12,16:00,0.751,1.099,0.762,1.405,0.998,0.436,0.770,0.727,��,7.0,��
2019/03/12,16:10,0.752,1.102,0.761,1.405,0.997,0.438,0.769,0.728,���쐼,6.9,��
2019/03/12,16:20,0.753,1.102,0.761,1.405,0.995,0.440,0.769,0.728,��,6.7,��
2019/03/12,16:30,0.754,1.101,0.762,1.406,0.998,0.438,0.770,0.729,��,6.2,��
2019/03/12,16:40,0.752,1.101,0.761,1.405,0.999,0.439,0.771,0.731,���쐼,3.2,��
2019/03/12,16:50,0.752,1.098,0.761,1.407,0.998,0.437,0.768,0.730,���쐼,2.8,��
2019/03/12,17:00,0.751,1.101,0.760,1.407,0.999,0.437,0.770,0.728,���쐼,1.7,��
2019/03/12,17:10,0.751,1.102,0.761,1.405,0.997,0.437,0.768,0.731,��,2.2,��
2019/03/12,17:20,0.751,1.103,0.761,1.404,0.996,0.437,0.770,0.733,�쓌,1.7,��
2019/03/12,17:30,0.752,1.104,0.761,1.404,0.998,0.435,0.771,0.731,��쓌,1.2,��
2019/03/12,17:40,0.754,1.103,0.763,1.404,0.997,0.437,0.770,0.731,��쓌,1.5,��
2019/03/12,17:50,0.754,1.100,0.763,1.405,0.999,0.437,0.771,0.732,��,1.1,��
2019/03/12,18:00,0.754,1.101,0.763,1.405,0.999,0.436,0.771,0.732,-,CALM,��
2019/03/12,18:10,0.755,1.104,0.763,1.406,1.000,0.437,0.771,0.732,���k��,0.8,��
2019/03/12,18:20,0.754,1.103,0.762,1.404,1.001,0.437,0.771,0.731,��,0.6,��
2019/03/12,18:30,0.753,1.100,0.763,1.404,1.001,0.437,0.771,0.731,��쐼,0.9,��
2019/03/12,18:40,0.754,1.101,0.764,1.405,0.999,0.437,0.770,0.731,��쓌,0.9,��
2019/03/12,18:50,0.754,1.100,0.764,1.406,0.998,0.438,0.772,0.732,��,1.5,��
2019/03/12,19:00,0.755,1.102,0.761,1.407,1.002,0.436,0.771,0.731,�쐼,2.6,��
2019/03/12,19:10,0.753,1.103,0.763,1.406,0.999,0.438,0.773,0.730,�쐼,4.4,��
2019/03/12,19:20,0.753,1.102,0.764,1.406,0.999,0.438,0.770,0.730,���쐼,4.5,��
2019/03/12,19:30,0.753,1.102,0.763,1.406,1.000,0.436,0.769,0.730,���쐼,4.5,��
2019/03/12,19:40,0.752,1.103,0.764,1.407,1.000,0.438,0.771,0.731,���쐼,4.9,��
2019/03/12,19:50,0.754,1.103,0.763,1.406,0.999,0.434,0.770,0.730,���쐼,5.8,��
2019/03/12,20:00,0.753,1.101,0.763,1.407,0.999,0.436,0.769,0.731,���쐼,5.6,��
2019/03/12,20:10,0.753,1.101,0.763,1.406,0.998,0.437,0.769,0.730,��,5.6,��
2019/03/12,20:20,0.752,1.100,0.763,1.405,1.001,0.436,0.770,0.730,��,5.8,��
2019/03/12,20:30,0.754,1.103,0.762,1.405,1.000,0.436,0.770,0.732,��,5.1,��
2019/03/12,20:40,0.752,1.101,0.763,1.405,1.001,0.437,0.771,0.730,��,4.2,��
2019/03/12,20:50,0.753,1.103,0.762,1.406,1.000,0.435,0.772,0.730,��,4.0,��
2019/03/12,21:00,0.752,1.102,0.764,1.407,1.000,0.436,0.770,0.730,���k��,2.6,��
2019/03/12,21:10,0.752,1.103,0.763,1.407,1.000,0.437,0.772,0.731,�k��,2.8,��
2019/03/12,21:20,0.753,1.102,0.762,1.406,0.999,0.438,0.770,0.730,���k��,3.9,��
2019/03/12,21:30,0.755,1.101,0.765,1.408,0.999,0.436,0.770,0.731,��,5.1,��
2019/03/12,21:40,0.753,1.102,0.765,1.406,1.002,0.437,0.771,0.729,��,6.4,��
2019/03/12,21:50,0.755,1.101,0.764,1.406,1.003,0.437,0.769,0.731,��,6.9,��
2019/03/12,22:00,0.754,1.102,0.764,1.405,1.000,0.437,0.772,0.732,��,8.4,��
2019/03/12,22:10,0.753,1.103,0.764,1.406,1.001,0.436,0.773,0.732,��,6.5,��
2019/03/12,22:20,0.756,1.101,0.765,1.408,0.999,0.437,0.772,0.731,��,8.0,�L
2019/03/12,22:30,0.755,1.104,0.763,1.407,1.001,0.436,0.771,0.733,��,10.5,�L
2019/03/12,22:40,0.756,1.101,0.764,1.405,1.001,0.435,0.770,0.731,��,10.2,�L
2019/03/12,22:50,0.752,1.103,0.763,1.408,1.003,0.436,0.770,0.733,��,9.1,�L
2019/03/12,23:00,0.753,1.103,0.764,1.406,1.001,0.437,0.770,0.731,���쐼,8.8,�L
2019/03/12,23:10,0.755,1.100,0.765,1.407,1.000,0.437,0.770,0.732,��,9.5,�L
2019/03/12,23:20,0.755,1.098,0.764,1.410,1.004,0.439,0.771,0.733,���쐼,9.2,�L
2019/03/12,23:30,0.756,1.098,0.766,1.410,1.001,0.438,0.771,0.732,���쐼,8.4,�L
2019/03/12,23:40,0.755,1.098,0.766,1.410,0.999,0.439,0.770,0.731,��,7.8,�L
2019/03/12,23:50,0.754,1.098,0.766,1.409,1.002,0.441,0.769,0.730,��,9.3,�L
